EW4427 Weather Reports


Display with metric or nautical units.
time (UTC)temp
F
wind
direction
speed
MPH
gust
MPH
rain 1hr
in
rain 24hr
in
rain mn
in
humidity
%
barometer
mb
20260904021046 73 0 0.0 0.0 0.00 0.01 0.00 89 1014.3
20260904020546 73 0 0.0 0.0 0.00 0.01 0.00 89 1014.4
20260904020106 73 0 0.0 0.0 0.00 0.01 0.00 89 1014.4
20260904015544 73 0 0.0 0.0 0.00 0.01 0.00 89 1014.4
20260904015046 73 0 0.0 0.0 0.00 0.01 0.00 88 1014.2
20260904014609 73 0 0.0 0.0 0.00 0.01 0.00 88 1014.1
20260904014046 73 0 0.0 0.0 0.00 0.01 0.00 88 1013.9
20260904013548 74 0 0.0 0.0 0.00 0.01 0.00 88 1013.8
20260904013058 74 0 0.0 1.0 0.00 0.01 0.00 88 1013.9
20260904012544 74 0 0.0 1.0 0.00 0.01 0.00 87 1013.7
20260904012044 74 0 0.0 1.0 0.00 0.01 0.00 87 1013.7
20260904011601 74 0 0.0 0.0 0.00 0.01 0.00 87 1013.6
20260904011046 74 0 0.0 1.0 0.00 0.01 0.00 86 1013.6
20260904010544 74 0 0.0 1.0 0.00 0.01 0.00 86 1013.4
20260904010115 74 0 0.0 1.0 0.00 0.01 0.00 86 1013.5
20260904005548 75 0 0.0 1.0 0.00 0.01 0.00 86 1013.4
20260904005044 75 0 0.0 0.0 0.00 0.01 0.00 86 1013.3
20260904004602 75 0 0.0 0.0 0.00 0.01 0.00 85 1013.3
20260904004046 75 0 0.0 2.0 0.00 0.01 0.00 86 1013.2
20260904003545 75 0 0.0 2.0 0.00 0.01 0.00 86 1013.4
20260904003108 75 24 0.0 1.0 0.00 0.01 0.00 85 1013.4
20260904002545 75 0 0.0 1.0 0.00 0.01 0.00 85 1013.3
20260904002047 75 0 0.0 1.0 0.00 0.01 0.00 85 1013.2
20260904001601 76 0 0.0 1.0 0.00 0.01 0.00 85 1013.4
20260904001044 76 0 0.0 0.0 0.00 0.01 0.00 84 1013.3
20260904000544 76 0 0.0 0.0 0.00 0.01 0.00 84 1013.1
20260904000103 76 0 0.0 1.0 0.00 0.01 0.00 84 1013.1
20260903235545 76 0 0.0 2.0 0.00 0.01 0.00 84 1013.4
20260903235044 76 24 0.0 2.0 0.00 0.01 0.00 84 1013.4
20260903234601 76 11 0.0 3.0 0.00 0.01 0.00 83 1013.2
20260903234047 77 0 0.0 3.0 0.00 0.01 0.00 83 1013.1
20260903233548 77 13 0.0 1.0 0.00 0.01 0.00 82 1013.0
20260903233106 77 0 0.0 1.0 0.00 0.01 0.00 82 1013.0
20260903232544 77 0 0.0 2.0 0.00 0.01 0.00 82 1013.0
20260903232045 78 0 0.0 2.0 0.00 0.01 0.00 81 1012.9
20260903231557 78 17 0.0 2.0 0.00 0.01 0.00 81 1012.8
20260903231044 78 0 0.0 2.0 0.00 0.01 0.00 80 1012.9
20260903230544 78 0 0.0 2.0 0.00 0.01 0.00 80 1013.0
20260903230058 79 0 0.0 3.0 0.00 0.01 0.00 79 1013.0
20260903225545 79 107 0.0 3.0 0.00 0.01 0.00 79 1013.0
20260903225047 79 80 0.0 3.0 0.00 0.01 0.00 79 1013.0
20260903224557 80 0 0.0 3.0 0.00 0.01 0.00 78 1013.1
20260903224049 80 0 0.0 4.0 0.00 0.01 0.00 78 1013.1
20260903223545 80 9 0.0 4.0 0.00 0.01 0.00 78 1013.3
20260903223103 81 10 0.0 5.0 0.00 0.01 0.00 78 1013.2
20260903222547 81 22 1.0 5.0 0.00 0.01 0.00 78 1013.1
20260903222043 82 9 1.0 5.0 0.00 0.01 0.00 80 1012.9
20260903221559 82 19 1.0 5.0 0.00 0.01 0.00 81 1012.9
20260903221045 82 5 0.0 2.0 0.00 0.01 0.00 82 1012.9
20260903220547 82 0 0.0 1.0 0.00 0.01 0.00 83 1013.0
20260903220100 82 0 0.0 3.0 0.00 0.01 0.00 83 1013.0
20260903215547 82 0 0.0 3.0 0.00 0.01 0.00 82 1012.9
20260903215044 82 0 0.0 1.0 0.00 0.01 0.00 83 1013.0
20260903214558 82 0 0.0 0.0 0.00 0.01 0.00 83 1013.1
20260903214043 82 0 0.0 0.0 0.00 0.01 0.00 83 1013.2
20260903213543 82 0 0.0 0.0 0.00 0.01 0.00 83 1013.0
20260903213103 82 0 0.0 2.0 0.00 0.01 0.00 82 1013.0
20260903212543 82 0 0.0 2.0 0.00 0.01 0.00 82 1013.0
20260903212046 82 0 0.0 2.0 0.00 0.01 0.00 83 1013.1
20260903211601 82 0 0.0 2.0 0.00 0.01 0.00 83 1013.0
20260903211047 82 0 0.0 0.0 0.00 0.01 0.00 84 1012.9
20260903210546 81 0 0.0 0.0 0.00 0.01 0.00 84 1013.0
20260903210120 81 0 0.0 1.0 0.00 0.01 0.00 83 1013.1
20260903205543 81 0 0.0 2.0 0.00 0.01 0.00 83 1013.0
20260903205044 81 0 0.0 4.0 0.00 0.01 0.00 83 1013.0
20260903204620 81 0 0.0 4.0 0.00 0.01 0.00 82 1013.0
20260903204046 81 188 1.0 5.0 0.00 0.01 0.00 83 1013.0
20260903203542 80 188 2.0 5.0 0.00 0.01 0.00 83 1013.1
20260903203100 80 188 2.0 5.0 0.00 0.01 0.00 83 1013.1
20260903202546 80 190 2.0 5.0 0.00 0.01 0.00 83 1013.1
20260903202044 80 187 3.0 5.0 0.00 0.01 0.00 84 1013.1
20260903201600 80 163 3.0 5.0 0.00 0.01 0.00 83 1013.1
20260903201048 80 185 2.0 5.0 0.00 0.01 0.00 85 1013.3
20260903200546 80 183 3.0 6.0 0.00 0.01 0.00 84 1013.1
20260903200059 80 194 4.0 7.0 0.00 0.01 0.00 84 1013.0
20260903195545 80 182 4.0 7.0 0.00 0.01 0.00 84 1013.1
20260903195046 79 194 4.0 7.0 0.00 0.01 0.00 84 1013.0
20260903194605 79 191 4.0 7.0 0.00 0.01 0.00 86 1013.1
20260903194045 78 173 3.0 6.0 0.00 0.01 0.00 89 1013.3
20260903193545 78 191 2.0 4.0 0.00 0.01 0.00 92 1013.4
20260903193059 78 186 1.0 4.0 0.00 0.01 0.00 94 1013.4
20260903192547 77 171 0.0 2.0 0.00 0.01 0.00 95 1013.5
20260903192046 77 0 0.0 2.0 0.00 0.01 0.00 95 1013.5
20260903191559 77 0 0.0 2.0 0.00 0.01 0.00 95 1013.5
20260903191046 77 171 0.0 2.0 0.00 0.01 0.00 96 1013.4
20260903190546 77 0 0.0 1.0 0.00 0.01 0.00 97 1013.6
20260903190106 77 0 0.0 2.0 0.00 0.01 0.00 97 1013.8
20260903185546 76 0 0.0 2.0 0.00 0.01 0.00 97 1013.8
20260903185046 76 171 0.0 2.0 0.00 0.01 0.00 97 1013.5
20260903184604 76 171 0.0 2.0 0.00 0.01 0.00 97 1013.5
20260903184046 75 171 0.0 2.0 0.00 0.01 0.00 97 1013.6
20260903183545 75 0 0.0 1.0 0.00 0.01 0.00 97 1013.8
20260903183104 75 0 0.0 2.0 0.00 0.01 0.00 97 1014.0
20260903182548 74 171 0.0 2.0 0.00 0.01 0.00 96 1014.0
20260903182050 74 0 0.0 2.0 0.00 0.01 0.00 96 1014.1
20260903181600 74 171 0.0 4.0 0.00 0.01 0.00 96 1014.1
20260903181046 74 171 1.0 4.0 0.00 0.01 0.00 96 1014.1
20260903180546 73 179 0.0 4.0 0.00 0.01 0.00 96 1014.0
20260903180105 73 61 0.0 3.0 0.00 0.01 0.00 96 1014.2
20260903175547 73 0 0.0 3.0 0.00 0.01 0.00 95 1014.1
20260903175046 73 57 0.0 3.0 0.00 0.01 0.00 95 1014.0
20260903174601 73 5 0.0 3.0 0.00 0.01 0.00 95 1014.3
20260903174045 73 22 0.0 3.0 0.00 0.01 0.00 95 1014.0
20260903173546 72 17 0.0 2.0 0.00 0.01 0.00 95 1013.8
20260903173106 72 0 0.0 2.0 0.00 0.01 0.00 95 1013.6
20260903172546 72 0 0.0 2.0 0.00 0.01 0.00 95 1013.3
20260903172045 72 0 0.0 4.0 0.00 0.01 0.00 94 1013.4
20260903171604 71 0 0.0 4.0 0.00 0.01 0.00 94 1013.4
20260903171047 71 0 0.0 0.0 0.00 0.01 0.00 94 1013.6
20260903170546 71 0 0.0 2.0 0.00 0.01 0.00 93 1013.9
20260903170108 71 0 0.0 2.0 0.00 0.01 0.00 93 1014.9
20260903165546 71 0 0.0 1.0 0.00 0.01 0.00 93 1015.2
20260903165046 71 0 0.0 1.0 0.00 0.01 0.00 93 1015.5
20260903164559 71 161 0.0 1.0 0.00 0.01 0.00 92 1015.7
20260903164046 71 0 0.0 0.0 0.00 0.01 0.00 92 1016.0
20260903163544 71 0 0.0 0.0 0.00 0.01 0.00 92 1016.3
20260903163056 71 0 0.0 1.0 0.00 0.01 0.00 92 1016.5
20260903162546 72 0 0.0 7.0 0.00 0.01 0.00 92 1016.6
20260903162045 72 0 1.0 12.0 0.00 0.01 0.00 92 1016.9
20260903161603 72 182 7.0 12.0 0.00 0.01 0.00 92 1017.4
20260903161046 72 192 4.0 7.0 0.00 0.01 0.00 91 1017.5
20260903160546 71 184 0.0 2.0 0.00 0.01 0.00 89 1017.2
20260903160107 72 0 0.0 4.0 0.00 0.01 0.00 88 1017.0
20260903155546 72 0 0.0 10.0 0.00 0.01 0.00 87 1016.6
20260903155046 72 0 1.0 10.0 0.00 0.01 0.00 87 1016.3
20260903154605 73 84 3.0 10.0 0.00 0.01 0.00 85 1016.0
20260903154046 73 37 0.0 5.0 0.00 0.01 0.00 83 1016.4
20260903153546 73 0 2.0 5.0 0.00 0.01 0.00 83 1016.2
20260903153103 74 40 2.0 4.0 0.00 0.01 0.00 81 1015.3
20260903152546 74 40 1.0 6.0 0.00 0.01 0.00 80 1015.5
20260903152045 74 0 0.0 7.0 0.00 0.01 0.00 78 1015.9
20260903151600 74 0 1.0 7.0 0.00 0.01 0.00 77 1015.8
20260903151045 74 0 1.0 4.0 0.00 0.01 0.00 76 1015.6
20260903150546 74 54 1.0 3.0 0.00 0.01 0.00 76 1015.7
20260903150118 74 0 0.0 4.0 0.00 0.01 0.00 76 1015.2
20260903145546 74 15 0.0 4.0 0.00 0.01 0.00 76 1014.7
20260903145047 74 5 0.0 4.0 0.00 0.01 0.00 76 1014.9
20260903144606 74 0 1.0 4.0 0.00 0.01 0.00 76 1014.9
20260903144047 74 350 1.0 4.0 0.00 0.01 0.00 76 1014.9
20260903143545 75 51 0.0 5.0 0.00 0.01 0.00 76 1014.9
20260903143105 75 5 1.0 6.0 0.00 0.01 0.00 76 1015.0
20260903142549 75 313 2.0 8.0 0.00 0.01 0.00 76 1014.8
20260903142046 75 36 2.0 8.0 0.00 0.01 0.00 77 1014.7
20260903141559 75 0 1.0 8.0 0.00 0.01 0.00 78 1015.0
20260903141049 75 0 1.0 5.0 0.00 0.01 0.00 78 1014.9
20260903140547 74 0 0.0 7.0 0.00 0.01 0.00 80 1014.9
20260903140114 74 21 1.0 7.0 0.00 0.01 0.00 82 1014.8
20260903135547 74 355 2.0 8.0 0.00 0.01 0.00 87 1014.8
20260903135046 75 0 2.0 8.0 0.00 0.01 0.00 91 1014.9
20260903134610 75 44 1.0 5.0 0.00 0.01 0.00 94 1015.0
20260903134047 75 22 2.0 6.0 0.00 0.01 0.00 95 1014.6
20260903133547 75 0 1.0 7.0 0.00 0.01 0.00 95 1014.6
20260903133108 75 26 3.0 7.0 0.00 0.01 0.00 96 1014.5
20260903132548 75 0 0.0 1.0 0.00 0.01 0.00 96 1013.9
20260903132045 75 0 0.0 0.0 0.00 0.01 0.00 96 1013.4
20260903131601 75 0 0.0 0.0 0.00 0.01 0.00 96 1013.2
20260903131045 75 0 0.0 0.0 0.00 0.01 0.00 96 1013.1
20260903130545 74 0 0.0 1.0 0.00 0.01 0.00 96 1013.1
20260903125546 74 0 0.0 4.0 0.00 0.01 0.00 96 1012.8
20260903125046 74 188 2.0 4.0 0.00 0.01 0.00 96 1012.8
20260903124557 74 188 0.0 2.0 0.00 0.01 0.00 95 1012.8
20260903124045 74 0 0.0 1.0 0.00 0.01 0.00 95 1012.8
20260903123549 74 0 0.0 1.0 0.00 0.01 0.00 95 1012.9
20260903123101 74 0 0.0 1.0 0.00 0.01 0.00 95 1012.9
20260903122546 73 0 0.0 1.0 0.00 0.01 0.00 95 1012.8
20260903122046 73 0 0.0 1.0 0.00 0.01 0.00 95 1013.0
20260903121558 73 0 0.0 0.0 0.00 0.01 0.00 95 1012.9
20260903121046 73 0 0.0 0.0 0.00 0.01 0.00 94 1012.9
20260903120545 73 0 0.0 0.0 0.00 0.01 0.00 94 1013.0
20260903120106 73 0 0.0 0.0 0.00 0.01 0.00 94 1012.9
20260903115546 73 0 0.0 0.0 0.00 0.01 0.00 94 1013.0
20260903115049 73 0 0.0 0.0 0.00 0.01 0.00 94 1013.0
20260903114558 73 0 0.0 0.0 0.00 0.01 0.00 94 1013.0
20260903114045 73 0 0.0 0.0 0.00 0.01 0.00 94 1013.0
20260903113550 73 0 0.0 0.0 0.00 0.01 0.00 94 1013.1
20260903113056 73 0 0.0 0.0 0.00 0.01 0.00 94 1013.1
20260903112548 73 0 0.0 0.0 0.00 0.01 0.00 94 1013.1
20260903112045 73 0 0.0 0.0 0.00 0.01 0.00 94 1013.0
20260903111558 73 0 0.0 0.0 0.00 0.01 0.00 94 1013.0
20260903111046 73 0 0.0 0.0 0.00 0.01 0.00 94 1012.9
20260903110546 73 0 0.0 0.0 0.00 0.01 0.00 94 1013.0
20260903105547 73 0 0.0 0.0 0.00 0.01 0.00 94 1013.0
20260903105048 73 0 0.0 0.0 0.00 0.01 0.00 94 1012.9
20260903104559 73 0 0.0 0.0 0.00 0.01 0.00 94 1013.0
20260903104045 73 0 0.0 0.0 0.00 0.01 0.00 94 1012.9
20260903103546 73 0 0.0 0.0 0.00 0.01 0.00 94 1012.9
20260903103105 73 0 0.0 0.0 0.00 0.01 0.00 94 1013.0
20260903102546 73 0 0.0 0.0 0.00 0.01 0.00 94 1012.9
20260903102050 74 0 0.0 0.0 0.00 0.01 0.00 94 1013.0
20260903101603 74 0 0.0 0.0 0.00 0.01 0.00 94 1013.0
20260903101045 74 0 0.0 0.0 0.00 0.01 0.00 94 1013.0
20260903100545 74 0 0.0 0.0 0.00 0.01 0.00 94 1013.0
20260903095545 74 0 0.0 0.0 0.00 0.01 0.00 94 1013.0
20260903095046 74 0 0.0 0.0 0.00 0.01 0.00 94 1013.1
20260903094608 74 0 0.0 0.0 0.00 0.01 0.00 94 1013.2
20260903094045 74 0 0.0 0.0 0.00 0.01 0.00 94 1013.2
20260903093545 75 0 0.0 0.0 0.00 0.01 0.00 94 1013.1
20260903093129 75 0 0.0 0.0 0.00 0.01 0.00 94 1013.1
20260903092546 75 0 0.0 0.0 0.00 0.01 0.00 94 1013.1
20260903092046 75 0 0.0 0.0 0.00 0.01 0.00 94 1013.0
20260903091601 75 0 0.0 0.0 0.00 0.01 0.00 94 1013.0
20260903091046 75 0 0.0 0.0 0.00 0.01 0.00 95 1013.0
20260903090545 75 0 0.0 0.0 0.00 0.01 0.00 94 1013.0
20260903090058 75 0 0.0 0.0 0.00 0.01 0.00 94 1013.0
20260903085545 75 0 0.0 0.0 0.00 0.01 0.00 94 1013.0
20260903085046 75 0 0.0 0.0 0.00 0.01 0.00 94 1013.0
20260903084603 75 0 0.0 0.0 0.00 0.01 0.00 94 1013.0
20260903084047 75 0 0.0 0.0 0.00 0.01 0.00 94 1013.0
20260903083546 75 0 0.0 0.0 0.00 0.01 0.00 94 1013.0
20260903083102 74 0 0.0 0.0 0.00 0.01 0.00 94 1013.0
20260903082545 74 0 0.0 0.0 0.00 0.01 0.00 93 1013.1
20260903082045 74 0 0.0 0.0 0.00 0.01 0.00 93 1013.3
20260903081558 74 0 0.0 0.0 0.00 0.01 0.00 93 1013.1
20260903081046 74 0 0.0 0.0 0.00 0.01 0.00 93 1013.1
20260903080546 74 0 0.0 0.0 0.00 0.01 0.00 93 1013.1
20260903080110 75 0 0.0 0.0 0.00 0.01 0.00 93 1013.2
20260903075546 75 0 0.0 0.0 0.00 0.01 0.00 93 1013.1
20260903075045 75 0 0.0 0.0 0.00 0.01 0.00 93 1013.1
20260903074625 75 0 0.0 0.0 0.00 0.01 0.00 93 1013.1
20260903074046 75 0 0.0 0.0 0.00 0.01 0.00 93 1013.2
20260903073559 75 0 0.0 0.0 0.00 0.01 0.00 93 1013.0
20260903073110 75 0 0.0 0.0 0.00 0.01 0.00 93 1013.1
20260903072545 75 0 0.0 0.0 0.00 0.01 0.00 93 1013.1
20260903072045 75 0 0.0 0.0 0.00 0.01 0.00 93 1013.1
20260903071607 75 0 0.0 0.0 0.00 0.01 0.00 93 1013.0
20260903071046 75 0 0.0 0.0 0.00 0.01 0.00 93 1013.1
20260903070547 75 0 0.0 0.0 0.00 0.01 0.00 93 1013.1
20260903070057 75 0 0.0 0.0 0.00 0.01 0.00 93 1013.0
20260903065547 75 0 0.0 0.0 0.00 0.01 0.00 93 1013.0
20260903065046 75 0 0.0 0.0 0.00 0.01 0.00 93 1013.1
20260903064558 75 0 0.0 0.0 0.00 0.01 0.00 92 1013.3
20260903064045 75 0 0.0 0.0 0.00 0.01 0.00 92 1013.2
20260903063545 75 0 0.0 0.0 0.00 0.01 0.00 92 1013.4
20260903063057 75 0 0.0 0.0 0.00 0.01 0.00 92 1013.3
20260903062546 75 0 0.0 0.0 0.00 0.01 0.00 92 1013.4
20260903062045 75 0 0.0 0.0 0.00 0.01 0.00 92 1013.3
20260903061559 75 0 0.0 0.0 0.00 0.01 0.00 92 1013.4
20260903061045 75 0 0.0 0.0 0.00 0.01 0.00 91 1013.4
20260903060547 75 0 0.0 0.0 0.00 0.01 0.00 91 1013.3
20260903055546 75 0 0.0 0.0 0.00 0.01 0.00 91 1013.2
20260903055045 75 0 0.0 0.0 0.00 0.01 0.00 91 1013.3
20260903054601 75 0 0.0 0.0 0.00 0.01 0.00 91 1013.3
20260903054045 75 0 0.0 0.0 0.00 0.01 0.00 91 1013.3
20260903053544 75 0 0.0 0.0 0.00 0.01 0.00 91 1013.4
20260903053058 76 0 0.0 0.0 0.00 0.01 0.00 91 1013.3
20260903052547 76 0 0.0 0.0 0.00 0.01 0.00 91 1013.3
20260903052045 76 0 0.0 0.0 0.00 0.01 0.00 91 1013.3
20260903051601 76 0 0.0 0.0 0.00 0.01 0.00 91 1013.4
20260903051045 76 0 0.0 0.0 0.00 0.01 0.00 91 1013.4
20260903050545 76 0 0.0 0.0 0.00 0.01 0.00 91 1013.3
20260903050100 76 0 0.0 0.0 0.00 0.01 0.00 91 1013.3
20260903045545 76 0 0.0 0.0 0.00 0.01 0.01 90 1013.3
20260903045045 76 0 0.0 0.0 0.00 0.01 0.01 90 1013.3
20260903044557 77 0 0.0 0.0 0.00 0.01 0.01 90 1013.3
20260903044047 77 0 0.0 0.0 0.00 0.01 0.01 90 1013.2
20260903043545 77 0 0.0 0.0 0.00 0.01 0.01 90 1013.1
20260903043102 77 0 0.0 0.0 0.00 0.01 0.01 90 1013.1
20260903042547 77 0 0.0 0.0 0.00 0.01 0.01 90 1012.9
20260903042045 77 0 0.0 0.0 0.00 0.01 0.01 89 1012.8
20260903041556 77 0 0.0 0.0 0.00 0.01 0.01 89 1012.8
20260903041051 77 0 0.0 0.0 0.00 0.01 0.01 89 1012.7
20260903040545 77 0 0.0 0.0 0.00 0.01 0.01 89 1012.7
20260903040057 77 0 0.0 0.0 0.01 0.01 0.01 89 1012.8
20260903035545 77 0 0.0 0.0 0.01 0.01 0.01 89 1012.8
20260903035045 77 0 0.0 0.0 0.01 0.01 0.01 89 1012.8
20260903034606 77 0 0.0 0.0 0.01 0.01 0.01 89 1012.8
20260903034046 78 0 0.0 0.0 0.01 0.01 0.01 89 1012.8
20260903033545 78 0 0.0 0.0 0.01 0.01 0.01 89 1012.9
20260903033116 78 0 0.0 0.0 0.01 0.01 0.01 88 1012.9
20260903032546 78 0 0.0 0.0 0.01 0.01 0.01 88 1012.9
20260903032046 78 0 0.0 0.0 0.01 0.01 0.01 88 1013.0
20260903031635 78 0 0.0 0.0 0.01 0.01 0.01 88 1012.8
20260903031045 78 0 0.0 0.0 0.01 0.01 0.01 88 1012.9
20260903030546 78 0 0.0 0.0 0.01 0.01 0.01 88 1013.0
20260903025545 79 0 0.0 0.0 0.00 0.00 0.00 87 1013.0
20260903025046 79 0 0.0 0.0 0.00 0.00 0.00 87 1013.0
20260903024558 79 0 0.0 0.0 0.00 0.00 0.00 87 1013.0
20260903024045 79 0 0.0 0.0 0.00 0.00 0.00 87 1013.0
20260903023548 79 0 0.0 0.0 0.00 0.00 0.00 87 1013.0
20260903023107 79 0 0.0 0.0 0.00 0.00 0.00 87 1013.0
20260903022548 80 0 0.0 0.0 0.00 0.00 0.00 87 1013.0
20260903022045 80 0 0.0 0.0 0.00 0.00 0.00 87 1013.0
20260903021558 80 0 0.0 0.0 0.00 0.00 0.00 86 1012.9